NOAA 16 DEB, 41503

Orbit data source: Space-Track

NOAA 16 DEB, 41503 is space debris in SSO originally from a launch on Thu, 21 Sep 2000 UTC launched from the Air Force Western Test Range (AFWTR). Debris objects in space refer to the collection of defunct objects orbiting the Earth. Examples of debris include non-operational satellites, rocket bodies, and fragments generated from explosions, collisions, or faulty payload assembly.

Loading next visibility...
Identifier
41503, 2000-055MB
Orbit
SSO
Country
Flag of USUS
Related business
Manufacturer
Unknown
Mission
Spacecraft
Bus & Motor
Unknown
Mass
Unknown
Launch date (UTC)
2000-09-21 (25 years ago)
Launch vehicle
Unknown
Launch site
Air Force Western Test Range (AFWTR)
Object type
Payload
Rocket body
Debris
Shape & HBR
Unknown shape, 0.1 m
Radar Cross Section
Small (<0.1 m²)

Expand to show TLE details & history
Last TLE update: 2 days ago

TLE from 2 days ago
0 NOAA 16 DEB
1 41503U 00055MB  25303.16649336  .00021119  00000-0  48496-2 0  9991
2 41503  98.7712  72.2868 0021778  50.4808 309.8309 14.55345233502422
Epoch: 2025-10-30T03:59Z
TLE epoch observation values (Epoch: 2025-10-30T03:59:45.026Z)
Latitude
0.00004°
Longitude
-26.37999°
Altitude
701.337 km
Speed
7.511 km/s
True Right ascension
04h 49m 08s
True Declination
0° 00' 00"
Sunlit
Object was in full shadow at epoch
Visualization orbit readout
Latitude
Unknown
Longitude
Unknown
Altitude
Unknown
Speed
Unknown
Apparent Right ascension
Unknown
Apparent Declination
Unknown
Sunlit
N/A
Visualization observer readout
Local Sidereal Time
19:58:10
Azimuth
Unknown
Elevation
Unknown
Doppler factor
Unknown
Orbital elements
Apogee altitude
720.785 km
Perigee altitude
689.932 km
Semi-major axis
7,083.495 km
Eccentricity
0.00218
Inclination
98.7712°
RAAN
72.2868°
Arg. of periapsis
50.4808°
True anomaly
309.63892°
Mean anomaly
309.8309°
Eccentric anomaly
309.73494°
Mean motion
3.64059 °/min
Orbital period
98.89 mins
BSTAR
0.0048496
Loading maneuver chart data...
Computing Atmospheric mass density...
Loading historical data...
Loading historical data...
Loading historical data...
Loading historical data...
Loading historical data...
Loading historical data...
Loading historical data...

Documentation

Showing up to 5 results
|